COSMOS 528

Satellite information

Favourite Embed

Satellite Type and Status

PAYLOADIN ORBIT

Key statistics

Satellite COSMOS 528 at a glance.

Uptime

19242

Days in orbit

Revolutions

≈ 12.6

Per day

Orbit

LEO

Low Earth Orbit

Inclination

74.0

Latest

Satellite identification and parameters

Extended collection of information and parameters for COSMOS 528.

Object identification

Identified? True

Debris? False

Object name: COSMOS 528

International designator: 1972-087A

Object number (NORAD): 6262

Object ID (CCSDS): 6262

Country: COMMONWEALTH OF INDEPENDENT STATES (CIS)

Current information (Y/N): Y

RCS size: MEDIUM

Orbital parameters

Period: 114.14 minutes

Inclination: 74.0337 deg

SMA: 7794.449 km

Apoapsis: 1466.779 km

Periapsis: 1365.849 km

RAAN: 248.7709 deg

Eccentricy: 0.0064745

Argument of periapsis: 57.7549 deg

Mean anomaly: 47.7612 deg

Mean motion: 12.61608574 rev/day

Mean motion (dot): -0.00000002 rev/day2

B* drag term: 0.000078033 1/REarth

Two-line elements (TLE)

Creation date: July 7, 2025, 6:34 p.m.

Reference frame: TEME

Reference center: EARTH

Epoch: July 7, 2025, 1:31 p.m. UTC

TLE line 0: 0 COSMOS 528

TLE line 1: 1 06262U 72087A 25188.56388250 -.00000002 00000-0 78033-4 0 9999

TLE line 2: 2 06262 74.0337 248.7709 0064745 57.7549 47.7612 12.61608574426326

Live tracking on map

Real-time ground track for satellite COSMOS 528.

In-orbit conjunctions

There are no conjunctions computed for COSMOS 528, at the moment. Check back to stay up to date, as we update our databases every day.

Go to all conjunctions

Associated space launch

Military communications satellites

COSMOS 528 was lifted into orbit during the mission ‘Kosmos-3M | Strela-1M 33-40’, on board a Kosmos-3M space rocket.

The launch took place on Nov. 1, 1972, 2:08 a.m. from 132/2.

For more information about the launch, click the button.

Launch to space Kosmos-3M | Strela-1M 33-40
Kosmos-3M | Strela-1M 33-40

Agency: N/A

Status: Launch Successful

Launch date: Nov. 1, 1972, 2:08 a.m. UTC

Rocket: Kosmos-3M

Launch pad: 132/2

Location: Plesetsk Cosmodrome, Russian Federation

...

Latest news about this satellite

There are no fresh news available about this satellite. Check back as we update our databases every day.


Newsletter sign-up

Weekly statistics, charts and insights to help you stay on top of the space industry.